This demonstration page uses our WeatherBlox Daily Observations layout. Learn more.

Left ArrowRight Arrow

44.89941, -97.11507

Hourly Observations for July 9, 2016

Temp ( °F °C ) Dew Point ( °F °C ) Humidity (%) Winds ( mph kmh ) Pressure ( in mb ) Visibility ( mi km ) Precip ( " mm )
12:53 am 00:53 Clear 65 18.3 57 13.9 76 76 Calm 30.03 1017 10 16 0.00 0.00
1:53 am 01:53 Clear 63 17.2 57 13.9 81 81 Calm 30.04 1017 10 16 0.00 0.00
2:53 am 02:53 Clear 62 16.7 57 13.9 84 84 SE 5 7 30.04 1017 10 16 0.00 0.00
3:53 am 03:53 Clear 62 16.7 57 13.9 84 84 SSE 5 7 30.03 1017 10 16 0.00 0.00
4:53 am 04:53 Clear 61 16.1 56 13.3 84 84 S 6 9 30.03 1017 10 16 0.00 0.00
5:53 am 05:53 Sunny 60 15.6 56 13.3 86 86 SE 5 7 30.02 1017 10 16 0.00 0.00
6:53 am 06:53 Sunny 63 17.2 57 13.9 81 81 SSE 7 11 30.02 1017 10 16 0.00 0.00
7:53 am 07:53 Sunny 66 18.9 58 14.4 75 75 SSE 10 17 30.02 1017 10 16 0.00 0.00
8:53 am 08:53 Sunny 71 21.7 59 15 66 66 S 9 15 30.02 1017 10 16 0.00 0.00
9:53 am 09:53 Sunny 75 23.9 59 15 58 58 SSE 16 26 30.01 1016 10 16 0.00 0.00
10:53 am 10:53 Sunny 78 25.6 59 15 52 52 SE 12 19 29.99 1016 10 16 0.00 0.00
11:53 am 11:53 Sunny 81 27.2 60 15.6 49 49 SE 13 20 29.98 1015 10 16 0.00 0.00
12:53 pm 12:53 Sunny 83 28.3 61 16.1 48 48 SSE 13 20 29.97 1015 10 16 0.00 0.00
1:53 pm 13:53 Mostly Cloudy 83 28.3 60 15.6 46 46 SSE 15 24 29.98 1015 10 16 0.00 0.00
2:53 pm 14:53 Mostly Sunny 85 29.4 61 16.1 45 45 SSE 16 26 29.96 1015 10 16 0.00 0.00
3:53 pm 15:53 Mostly Sunny 86 30 63 17.2 46 46 SE 15 24 29.93 1014 10 16 0.00 0.00
4:53 pm 16:53 Sunny 85 29.4 65 18.3 51 51 SSE 21 33 29.90 1012 10 16 0.00 0.00
5:53 pm 17:53 Sunny 84 28.9 66 18.9 55 55 SSE 23 37 29.88 1012 10 16 0.00 0.00
6:53 pm 18:53 Sunny 83 28.3 67 19.4 59 59 SSE 20 31 29.86 1011 10 16 0.00 0.00
7:53 pm 19:53 Sunny 81 27.2 68 20 65 65 SSE 17 28 29.84 1011 10 16 0.00 0.00
8:53 pm 20:53 Sunny 79 26.1 68 20 69 69 SSE 17 28 29.83 1010 10 16 0.00 0.00
9:53 pm 21:53 Clear 77 25 69 20.6 77 77 SSE 20 31 29.82 1010 10 16 0.00 0.00
10:53 pm 22:53 Clear 76 24.4 69 20.6 79 79 SSE 18 30 29.81 1009 10 16 0.00 0.00
11:53 pm 23:53 Clear 75 23.9 69 20.6 82 82 SSE 16 26 29.79 1009 10 16 0.00 0.00

Powered by AerisWeather